Dane County Regional Airport (Madison, WI) (MSN)


Airport Diagram
Current Weather/Forecast (VFR Conditions)
METAR KMSN 300653Z AUTO 02005KT 10SM OVC041 M01/M05 A3014 RMK AO2 SLP217 T10061050
TAF KMSN 300520Z 3006/3106 36004KT P6SM OVC040 FM301400 VRB03KT P6SM FEW050

All Charts
General
Chart Name Download
AIRPORT DIAGRAM
TAKEOFF MINIMUMS
ALTERNATE MINIMUMS
HOT SPOT
LAHSO

Approaches
Chart Name Download
ILS OR LOC RWY 18
ILS OR LOC RWY 21
ILS OR LOC/DME RWY 36
ILS RWY 36 (SA CAT I)
ILS RWY 18 (SA CAT I - II)
ILS RWY 36 (CAT II - III)
RNAV (GPS) RWY 03
RNAV (GPS) RWY 14
RNAV (GPS) RWY 18
RNAV (GPS) RWY 21
RNAV (GPS) RWY 32
RNAV (GPS) RWY 36
VOR RWY 14
VOR RWY 32
HI-TACAN RWY 18
HI-TACAN RWY 36